Regional Weather Roundup
Issued by NWS Little Rock, AR

Home | Current Version | Previous Version | Graphics & Text | Print | Product List | Glossary On
Versions: 1 2 3 4 5 6 7 8 9 10 11 12 13 14 15 16 17 18 19 20 21 22 23 24 25 26 27 28 29 30 31 32
000
ASUS44 KLZK 240505
RWRLZK

WEATHER ROUNDUP FOR ARKANSAS
NATIONAL WEATHER SERVICE LITTLE ROCK AR
1200 AM CDT SAT JUN 24 2017

NOTE: "FAIR" INDICATES FEW OR NO CLOUDS BELOW 12,000 FEET WITH NO
SIGNIFICANT WEATHER AND/OR OBSTRUCTIONS TO VISIBILITY.

ARZ001-003-010-029-240600-
NORTHWEST ARKANSAS

CITY           SKY/WX    TMP DP  RH WIND       PRES   REMARKS
FAYETTEVILLE   CLOUDY    63  63 100 S3        30.06R
FORT SMITH     CLEAR     73  70  90 CALM      30.02R
HARRISON       CLOUDY    63  63 100 W5        30.04S
BENTONVILLE    CLOUDY    66  63  88 CALM      30.07R
ROGERS         CLEAR     64  62  93 NW7       30.08R
SILOAM SPGS    CLOUDY    66  61  82 N3        30.06R
HIGHFILL       CLOUDY    67  62  84 NW5       30.07R
$$

ARZ004-005-016-240600-
NORTH CENTRAL ARKANSAS

CITY           SKY/WX    TMP DP  RH WIND       PRES   REMARKS
BATESVILLE     CLOUDY    70  66  88 W5        29.99R
FLIPPIN        CLOUDY    66  61  82 CALM      29.99S
MTN HOME       CLOUDY    66  66 100 CALM      30.02R
$$

ARZ040-041-240600-
WEST CENTRAL ARKANSAS

CITY           SKY/WX    TMP DP  RH WIND       PRES   REMARKS
MENA           CLOUDY    73  73 100 NE6       30.02S
MOUNT IDA      CLOUDY    70  68  93 CALM      29.99R
$$

ARZ009-017-025-026-028-240600-
NORTHEAST ARKANSAS

CITY           SKY/WX    TMP DP  RH WIND       PRES   REMARKS
CORNING        FAIR      70  68  94 NW7       29.96R
JONESBORO      CLOUDY    72  70  93 NW6       29.95R
WALNUT RIDGE   CLOUDY    70  64  83 NW7       29.96S
BLYTHEVILLE    CLOUDY    73  72  96 N5        29.94R
$$

ARZ022-023-033-042-044-240600-
CENTRAL ARKANSAS

CITY           SKY/WX    TMP DP  RH WIND       PRES   REMARKS
LITTLE ROCK    CLOUDY    70  70 100 NW5       29.98R
JACKSONVILLE   CLOUDY    70  70 100 CALM      29.97R
CONWAY           N/A     72  72 100 CALM      29.97S
SEARCY         CLOUDY    69  69 100 CALM      29.98S
HOT SPRINGS    CLOUDY    71  70  96 CALM      30.00R
RUSSELLVILLE   CLOUDY    69  69 100 CALM      30.00R
CLINTON        FAIR      68  68 100 CALM      30.01R
$$

ARZ036-240600-
EAST ARKANSAS

CITY           SKY/WX    TMP DP  RH WIND       PRES   REMARKS
WEST MEMPHIS   PTCLDY    72  72 100 NW6       29.93R
$$

ARZ050-053-066-070-073-240600-
SOUTHWEST ARKANSAS

CITY           SKY/WX    TMP DP  RH WIND       PRES   REMARKS
CAMDEN         CLOUDY    70  68  94 NW3       29.98R
TEXARKANA      CLOUDY    72  72 100 E6        29.95R
EL DORADO      PTCLDY    71  70  96 E3        29.94F
DE QUEEN       CLOUDY    74  73  97 E3        29.95S
$$

ARZ056-057-069-240600-
SOUTHEAST ARKANSAS

CITY           SKY/WX    TMP DP  RH WIND       PRES   REMARKS
PINE BLUFF     CLOUDY    71  70  96 NW7       29.97R
STUTTGART      CLOUDY    72  61  68 NW7       29.96S
MONTICELLO     CLOUDY    71  69  93 CALM      29.96R

$$






USA.gov is the U.S. government's official web portal to all federal, state and local government web resources and services.